Location: Unspecified
(0.0000°N, 0.0000°E)
Time: 11:04:19
(UTC+02:00)

ARIANE 5 R/B - Visible Passes

Search period start: 30 August 2016 00:00
Search period end: 09 September 2016 00:00
Orbit: 570 x 35556 km, 5.5° (Epoch: 28 August)

Date Brightness Start Highest point End Pass type
(mag) Time Alt. Az. Time Alt. Az. Time Alt. Az.
31 Aug 3.4 07:26:35 10° WNW 07:31:58 42° N 07:35:10 10° ENE visible
31 Aug 5.8 18:45:05 10° W 20:30:48 52° W 04:34:58 10° ENE visible
01 Sep 8.0 15:33:57 10° W 20:00:28 84° S 01:00:39 80° W visible
02 Sep 6.2 12:32:08 10° W 20:39:38 62° E 22:08:41 35° E visible
03 Sep 11.4 21:28:11 10° W 22:34:23 17° W 00:25:23 10° W visible
04 Sep 3.7 06:30:52 31° WNW 06:33:34 50° N 06:37:03 10° ENE visible
04 Sep 7.0 17:42:23 10° W 19:30:56 65° WSW 02:58:26 36° W visible
05 Sep 7.5 14:35:12 10° W 20:47:25 85° S 00:06:28 80° E visible
06 Sep 5.6 11:34:21 10° W 19:39:25 48° E 21:14:30 20° E visible
07 Sep 11.3 20:06:10 10° W 21:36:57 30° W 01:11:42 10° W visible
08 Sep 4.2 05:36:04 51° NNE 05:36:04 51° NNE 05:39:13 10° ENE visible
